[[{"header":{"parameterUnit":"m.s-1","parameterCategory":1,"la1":30.2991,"la2":30.254,"lo1":-89.0895,"lo2":-89.0444,"dy":0.0017,"dx":0.0017,"nx":28,"ny":28,"refTime":"2025-11-04T09:00:00:Z","depth":0,"parameterNumber":2,"parameterNumberName":"U-component_of_WINDS"},"data":[0,0,0,0,0,0,0,0,0,0,0,0,0,0,0,0,0,0,0,0,0,0,0,0,0,0,0,0,0,0,0,0,0,0,0,0,0,0,0,0,0,0,0,0,0,0,0,0,0,0,0,0,0,0,0,0,0,0,-3.1007,-3.1007,0,-3.0986,-3.0986,-3.0985,-3.0915,-3.0914,-3.0912,-3.0911,-3.0891,-3.0892,-3.0893,0,0,0,0,0,0,0,0,0,0,0,0,0,-3.0991,-3.0992,-3.1007,-3.1007,-3.1007,-3.0986,-3.0986,-3.0985,-3.0916,-3.0914,-3.0912,-3.091,-3.089,-3.0892,-3.0893,0,0,0,0,0,0,0,0,0,0,0,0,0,-3.0987,-3.0992,-3.1007,-3.097,-3.0966,-3.0986,-3.0986,-3.0985,-3.0916,-3.0914,-3.0911,-3.0909,-3.089,-3.0891,-3.0893,-3.0948,0,0,-3.0897,-3.0898,0,0,0,0,0,0,0,0,-3.0987,-3.0988,-3.0975,-3.0972,-3.0968,-3.0951,-3.0972,-3.0973,-3.0917,-3.0935,-3.0911,-3.0908,-3.0913,-3.0912,-3.0913,-3.0947,-3.0946,-3.0897,-3.0898,-3.0899,-3.0899,0,0,0,0,0,0,0,-3.0988,-3.0988,-3.0999,-3.0975,-3.0971,-3.0955,-3.0951,-3.0972,-3.0937,-3.0933,-3.0928,-3.0927,-3.091,-3.0912,-3.0912,-3.0946,-3.0897,-3.0898,-3.0899,-3.09,-3.1027,-3.1029,0,0,0,0,0,0,-3.0993,-3.0989,-3.1,-3.0998,-3.0972,-3.0957,-3.0953,-3.0959,-3.0937,-3.0931,-3.0929,-3.0923,-3.0911,-3.0911,-3.0911,-3.0976,-3.0899,-3.09,-3.0901,-3.1024,-3.1027,-3.103,0,0,0,0,0,0,-3.0993,-3.0995,-3.1,-3.0992,-3.0992,-3.096,-3.0966,-3.096,-3.0961,-3.0933,-3.0927,-3.0937,-3.0909,-3.0909,-3.094,-3.0975,-3.0901,-3.0902,-3.1021,-3.1025,-3.1029,-3.1106,0,0,0,0,0,0,-3.0993,-3.0995,-3.1015,-3.0993,-3.0992,-3.1029,-3.0969,-3.0961,-3.0964,-3.0957,-3.0939,-3.0934,-3.0907,-3.0938,-3.0941,-3.0975,-3.0903,-3.1018,-3.1023,-3.1027,-3.11,-3.1112,-3.1122,0,0,0,0,0,-3.0992,-3.1038,-3.1016,-3.1018,-3.1017,-3.1031,-3.103,-3.0998,-3.0967,-3.0987,-3.0969,-3.0935,-3.097,-3.0942,-3.0945,-3.098,-3.1016,-3.1022,-3.1027,-3.1095,-3.111,-3.1122,0,0,0,0,0,0,-3.1065,-3.1034,-3.101,-3.1049,-3.1043,-3.1019,-3.1044,-3.1014,-3.1017,-3.1011,-3.0971,-3.0968,-3.1004,-3.0995,-3.0964,-3.1033,-3.0987,-3.0994,-3.1038,-3.1052,-3.1062,-3.1065,-3.0904,0,0,0,0,0,-3.1085,-3.1099,-3.1071,-3.1109,-3.1107,-3.1076,-3.1081,-3.1057,-3.1049,-3.1046,-3.103,-3.1025,-3.1035,-3.1043,-3.105,-3.1098,-3.1095,-3.1124,-3.1135,-3.1144,-3.115,-3.1177,-3.1191,-3.1049,-3.1049,-3.1049,0,0,-3.1128,-3.1113,-3.1123,-3.1123,-3.1115,-3.1131,-3.1074,-3.1093,-3.1105,-3.1049,-3.1077,-3.1066,-3.1057,-3.1098,-3.1114,-3.1091,-3.1189,-3.1151,-3.1159,-3.116,-3.1185,-3.1198,-3.121,-3.1053,-3.1052,-3.1051,0,0,-3.1214,-3.1203,-3.1233,-3.1227,-3.1216,-3.1196,-3.1204,-3.1184,-3.1174,-3.1202,-3.1161,-3.1175,-3.1192,-3.1188,-3.1189,-3.1275,-3.1244,-3.1279,-3.1336,-3.1363,-3.1374,-3.1384,-3.1417,-3.1429,-3.1285,-3.1285,-3.1285,0,-3.1268,-3.129,-3.1253,-3.1275,-3.1277,-3.1227,-3.1259,-3.1255,-3.1247,-3.125,-3.1223,-3.1246,-3.1236,-3.1276,-3.1297,-3.1298,-3.1307,-3.1281,-3.1375,-3.1385,-3.1393,-3.1424,-3.1436,-3.129,-3.1289,-3.1289,-3.1288,0,-3.1358,-3.1374,-3.14,-3.1394,-3.1399,-3.1426,-3.1395,-3.1404,-3.138,-3.1362,-3.1392,-3.1379,-3.1384,-3.1391,-3.1368,-3.1429,-3.1414,-3.1382,-3.1335,-3.1412,-3.144,-3.1452,-3.1296,-3.1294,-3.1293,-3.1292,0,0,-3.1489,-3.1463,-3.1474,-3.1471,-3.1456,-3.1468,-3.1494,-3.1498,-3.1508,-3.1504,-3.1526,-3.1543,-3.1513,-3.1514,-3.1489,-3.1513,-3.1585,-3.1478,-3.1477,-3.15,-3.1653,-3.1679,-3.1693,-3.1563,-3.1565,-3.1567,-3.1655,0,-3.1572,-3.1613,-3.1582,-3.1629,-3.1644,-3.1598,-3.162,-3.1614,-3.1599,-3.1611,-3.1594,-3.1607,-3.1566,-3.1567,-3.1587,-3.1571,-3.1615,-3.1564,-3.1585,-3.1586,-3.159,-3.1707,-3.1734,-3.1817,-3.1665,-3.1667,-3.1668,0,-3.1674,-3.1676,-3.1725,-3.1708,-3.1713,-3.1734,-3.1737,-3.1748,-3.1741,-3.1728,-3.173,-3.1699,-3.1725,-3.1678,-3.1713,-3.168,-3.1686,-3.168,-3.1682,-3.1684,-3.1633,-3.1714,-3.1843,-3.1856,-3.1685,-3.1684,-3.1682,0,-3.1767,-3.1781,-3.1813,-3.1812,-3.1793,-3.1809,-3.1802,-3.1792,-3.1798,-3.18,-3.1804,-3.1809,-3.1813,-3.1819,-3.1792,-3.176,-3.1831,-3.1782,-3.1823,-3.1824,-3.1842,-3.1841,-3.1975,-3.1843,-3.1843,-3.1843,-3.1842,0,-3.1863,-3.1896,-3.1855,-3.1874,-3.191,-3.1874,-3.191,-3.1898,-3.1891,-3.1908,-3.1868,-3.1886,-3.1848,-3.1862,-3.1841,-3.1875,-3.1876,-3.1868,-3.1863,-3.1873,-3.1874,-3.1878,-3.1872,-3.1846,-3.1845,-3.1845,-3.1844,0,-3.1974,-3.1947,-3.1979,-3.1959,-3.1954,-3.1982,-3.1965,-3.1983,-3.1965,-3.1988,-3.1992,-3.1965,-3.1979,-3.1953,-3.1964,-3.195,-3.1998,-3.1982,-3.2,-3.1996,-3.204,-3.2037,-3.2182,-3.2201,-3.2055,-3.2057,-3.2058,0,-3.2038,-3.2062,-3.2044,-3.2053,-3.2048,-3.2063,-3.2068,-3.2034,-3.2042,-3.2037,-3.2056,-3.2068,-3.2075,-3.2101,-3.2083,-3.2092,-3.2078,-3.2128,-3.2079,-3.2089,-3.2081,-3.2081,-3.2084,-3.2139,-3.2141,-3.2142,-3.2143,0,-3.2156,-3.2142,-3.2151,-3.2156,-3.2164,-3.2166,-3.2166,-3.2176,-3.214,-3.2151,-3.2165,-3.2171,-3.2183,-3.2196,-3.2201,-3.2195,-3.2164,-3.2159,-3.2169,-3.2181,-3.2191,-3.2188,-3.203,-3.2156,-3.2154,-3.2153,-3.2153,-3.2152,-3.2246,-3.2266,-3.2257,-3.2269,-3.2266,-3.2267,-3.2283,-3.2268,-3.2279,-3.2286,-3.2266,-3.2286,-3.228,-3.2283,-3.2281,-3.2297,-3.2275,-3.2289,-3.2294,-3.2298,-3.2306,-3.2187,-3.2297,-3.2297,-3.2297,-3.2296,-3.2296,0,-3.2363,-3.2356,-3.2367,-3.2368,-3.2378,-3.2347,-3.2346,-3.2357,-3.2375,-3.2371,-3.238,-3.2398,-3.241,-3.2394,-3.2404,-3.242,-3.2407,-3.2424,-3.2423,-3.2423,-3.2324,-3.2315,-3.2435,-3.2435,-3.2435,-3.2435,-3.2435,-3.2435,-3.2426,-3.2458,-3.2444,-3.2475,-3.2467,-3.2486,-3.2488,-3.249,-3.2487,-3.2509,-3.2519,-3.2508,-3.25,-3.2509,-3.252,-3.2515,-3.2521,-3.2544,-3.2535,-3.2443,-3.243,-3.2417,-3.2408,-3.2546,-3.2546,-3.2632,-3.2633,-3.2634]},{"header":{"parameterUnit":"m.s-1","parameterCategory":1,"la1":30.2991,"la2":30.254,"lo1":-89.0895,"lo2":-89.0444,"dy":0.0017,"dx":0.0017,"nx":28,"ny":28,"refTime":"2025-11-04T09:00:00:Z","depth":0,"parameterNumber":3,"parameterNumberName":"V-component_of_WINDS"},"data":[0,0,0,0,0,0,0,0,0,0,0,0,0,0,0,0,0,0,0,0,0,0,0,0,0,0,0,0,0,0,0,0,0,0,0,0,0,0,0,0,0,0,0,0,0,0,0,0,0,0,0,0,0,0,0,0,0,0,-0.6174,-0.6174,0,-0.6207,-0.6207,-0.6208,-0.6178,-0.6177,-0.6176,-0.6174,-0.621,-0.6212,-0.6214,0,0,0,0,0,0,0,0,0,0,0,0,0,-0.6085,-0.6087,-0.6174,-0.6174,-0.6175,-0.6207,-0.6207,-0.6208,-0.6178,-0.6177,-0.6175,-0.6174,-0.6209,-0.6211,-0.6214,0,0,0,0,0,0,0,0,0,0,0,0,0,-0.6121,-0.6087,-0.6174,-0.6164,-0.6163,-0.6207,-0.6207,-0.6208,-0.6179,-0.6177,-0.6175,-0.6173,-0.6208,-0.6211,-0.6214,-0.627,0,0,-0.6224,-0.6225,0,0,0,0,0,0,0,0,-0.6119,-0.6125,-0.6165,-0.6164,-0.6164,-0.6186,-0.6189,-0.6229,-0.6179,-0.6173,-0.6174,-0.6172,-0.6203,-0.6207,-0.6217,-0.6271,-0.6273,-0.6224,-0.6226,-0.6227,-0.6228,0,0,0,0,0,0,0,-0.6117,-0.6123,-0.6187,-0.6165,-0.6165,-0.6158,-0.6161,-0.6196,-0.6198,-0.6173,-0.6171,-0.6175,-0.6203,-0.6214,-0.6218,-0.6273,-0.6224,-0.6227,-0.6228,-0.623,-0.6375,-0.6377,0,0,0,0,0,0,-0.6115,-0.6121,-0.6186,-0.6188,-0.6137,-0.6161,-0.6164,-0.6181,-0.6197,-0.6198,-0.6177,-0.6174,-0.621,-0.6214,-0.6219,-0.6285,-0.6227,-0.623,-0.6232,-0.6373,-0.6375,-0.6378,0,0,0,0,0,0,-0.6113,-0.6121,-0.6184,-0.6154,-0.6161,-0.6164,-0.6183,-0.6183,-0.6194,-0.62,-0.62,-0.6188,-0.6208,-0.6214,-0.6257,-0.6286,-0.6231,-0.6234,-0.6371,-0.6374,-0.6377,-0.6419,0,0,0,0,0,0,-0.6111,-0.6121,-0.6142,-0.6155,-0.6163,-0.6223,-0.6185,-0.6185,-0.6199,-0.6196,-0.6211,-0.6212,-0.6207,-0.6253,-0.626,-0.6289,-0.6237,-0.6368,-0.6372,-0.6376,-0.6415,-0.6423,-0.643,0,0,0,0,0,-0.6108,-0.6153,-0.6143,-0.6151,-0.619,-0.6224,-0.6229,-0.6223,-0.6202,-0.6223,-0.6227,-0.6211,-0.6281,-0.6257,-0.6266,-0.6296,-0.6366,-0.6371,-0.6375,-0.6412,-0.6421,-0.643,0,0,0,0,0,0,-0.6144,-0.6154,-0.6144,-0.6194,-0.6209,-0.6219,-0.6246,-0.6234,-0.6255,-0.6251,-0.6242,-0.6246,-0.6291,-0.6298,-0.6271,-0.6351,-0.632,-0.6327,-0.6345,-0.6355,-0.6362,-0.636,-0.6239,0,0,0,0,0,-0.6158,-0.6185,-0.6192,-0.6236,-0.6244,-0.6244,-0.6258,-0.6252,-0.6267,-0.6273,-0.628,-0.6295,-0.6321,-0.6338,-0.6361,-0.6415,-0.6418,-0.644,-0.6447,-0.6454,-0.646,-0.6489,-0.6499,-0.6392,-0.6392,-0.6392,0,0,-0.6187,-0.6196,-0.6213,-0.6243,-0.6254,-0.6282,-0.6249,-0.628,-0.6301,-0.6278,-0.6319,-0.6325,-0.6341,-0.6389,-0.6411,-0.6396,-0.6489,-0.6459,-0.6464,-0.6467,-0.6494,-0.6504,-0.6513,-0.6395,-0.6395,-0.6394,0,0,-0.6254,-0.6263,-0.6301,-0.6312,-0.6328,-0.6327,-0.6336,-0.6348,-0.6351,-0.6392,-0.6375,-0.64,-0.6444,-0.6456,-0.6468,-0.6539,-0.6525,-0.6547,-0.6586,-0.6615,-0.6623,-0.663,-0.6656,-0.6666,-0.6552,-0.6552,-0.6553,0,-0.6288,-0.633,-0.6322,-0.6354,-0.6368,-0.6347,-0.6385,-0.6396,-0.642,-0.643,-0.6412,-0.6467,-0.6476,-0.6527,-0.6545,-0.6555,-0.6565,-0.6546,-0.6622,-0.663,-0.6636,-0.6661,-0.6671,-0.6555,-0.6555,-0.6554,-0.6554,0,-0.6372,-0.6401,-0.6429,-0.6452,-0.6468,-0.6504,-0.65,-0.6518,-0.6511,-0.6512,-0.6554,-0.6564,-0.659,-0.6601,-0.6594,-0.6651,-0.6642,-0.6623,-0.6593,-0.6649,-0.6672,-0.6682,-0.6559,-0.6558,-0.6557,-0.6556,0,0,-0.6464,-0.6481,-0.6491,-0.6501,-0.6517,-0.6539,-0.6573,-0.6598,-0.6614,-0.663,-0.6658,-0.6696,-0.6679,-0.6692,-0.6686,-0.6711,-0.6767,-0.669,-0.669,-0.6705,-0.6832,-0.6846,-0.6857,-0.6757,-0.6759,-0.6761,-0.6831,0,-0.6533,-0.6592,-0.6585,-0.6641,-0.6668,-0.6649,-0.6678,-0.6691,-0.6693,-0.6716,-0.6718,-0.6745,-0.672,-0.6728,-0.6752,-0.6755,-0.6793,-0.675,-0.6785,-0.6786,-0.6783,-0.6869,-0.6885,-0.695,-0.6839,-0.6841,-0.6842,0,-0.6621,-0.664,-0.6699,-0.6711,-0.6722,-0.6748,-0.677,-0.6792,-0.6806,-0.6806,-0.6821,-0.681,-0.6844,-0.6812,-0.6859,-0.683,-0.6844,-0.6848,-0.685,-0.6854,-0.6818,-0.6876,-0.6971,-0.6981,-0.6856,-0.6855,-0.6854,0,-0.6684,-0.6724,-0.6765,-0.6774,-0.6787,-0.6807,-0.6813,-0.6825,-0.684,-0.6859,-0.6869,-0.6892,-0.6904,-0.6922,-0.6918,-0.6895,-0.6966,-0.6934,-0.6968,-0.6968,-0.6985,-0.6984,-0.7084,-0.6992,-0.6991,-0.6991,-0.6991,0,-0.6762,-0.6799,-0.6793,-0.6818,-0.6859,-0.685,-0.6891,-0.6895,-0.6906,-0.6932,-0.6916,-0.694,-0.6932,-0.6957,-0.6953,-0.6993,-0.6999,-0.7,-0.6999,-0.7002,-0.7002,-0.7012,-0.7007,-0.6994,-0.6993,-0.6993,-0.6992,0,-0.6839,-0.6837,-0.688,-0.6889,-0.6892,-0.6922,-0.693,-0.6954,-0.6954,-0.6986,-0.6994,-0.6994,-0.7021,-0.7018,-0.7049,-0.7047,-0.7097,-0.709,-0.7092,-0.7091,-0.7125,-0.7123,-0.7236,-0.725,-0.7148,-0.7149,-0.715,0,-0.689,-0.6918,-0.693,-0.6946,-0.6954,-0.698,-0.6995,-0.6987,-0.7003,-0.7021,-0.7042,-0.7068,-0.7089,-0.7134,-0.7137,-0.716,-0.7154,-0.7192,-0.7158,-0.716,-0.7156,-0.7155,-0.7158,-0.7199,-0.7201,-0.7202,-0.7202,0,-0.698,-0.6977,-0.7,-0.7022,-0.704,-0.7057,-0.7072,-0.7086,-0.7079,-0.7099,-0.7126,-0.7142,-0.7173,-0.7199,-0.7221,-0.7228,-0.7215,-0.7213,-0.7222,-0.7226,-0.7227,-0.7228,-0.7112,-0.7211,-0.721,-0.7209,-0.7209,-0.7208,-0.7047,-0.7071,-0.7083,-0.7108,-0.7119,-0.7133,-0.7156,-0.7158,-0.7181,-0.7206,-0.7199,-0.7231,-0.7243,-0.7272,-0.7281,-0.7305,-0.7291,-0.7305,-0.7308,-0.7312,-0.7316,-0.7222,-0.7309,-0.7309,-0.7309,-0.7308,-0.7308,0,-0.7137,-0.7143,-0.7167,-0.7188,-0.7208,-0.7192,-0.7208,-0.7226,-0.7254,-0.7267,-0.7287,-0.7319,-0.7344,-0.7348,-0.7372,-0.7391,-0.7385,-0.7398,-0.7397,-0.7399,-0.7327,-0.7317,-0.7402,-0.7402,-0.7402,-0.7402,-0.7402,-0.7402,-0.7186,-0.7226,-0.7225,-0.727,-0.7276,-0.7306,-0.7317,-0.733,-0.734,-0.7376,-0.7397,-0.7399,-0.7409,-0.7433,-0.7456,-0.7456,-0.7466,-0.7481,-0.748,-0.7413,-0.7404,-0.7395,-0.7385,-0.7483,-0.7483,-0.7549,-0.755,-0.7551]}]]